(296654) = 2009 SW135

Discovered at Kitt Peak on 2009-09-18 by Spacewatch.

Orbit

Orbit type: Jupiter Trojan

Note: WebGL enabled browser required.

epoch2023-09-13.0
epoch JD2460200.5
perihelion date2012-01-10.22532
perihelion JD2455936.72532
argument of perihelion (°)241.95592
ascending node (°)220.05597
inclination (°)8.67109
eccentricity0.0531883
perihelion distance (AU)5.0227946
Tisserand w.r.t. Jupiter3.0
ΔV w.r.t. Earth (km/sec)12.6
semimajor axis (AU)5.3049565
mean anomaly (°)343.93419
mean daily motion (°/day)0.08066430
aphelion distance (AU)5.587
period (years)12.22
P-vector [x]-0.20162275
P-vector [y]0.94323742
P-vector [z]0.26391558
Q-vector [x]-0.97464621
Q-vector [y]-0.16652044
Q-vector [z]-0.14945134
absolute magnitude14.23
phase slope0.15
uncertainty0
referenceMPEC 2024-A141
observations used176
oppositions13
arc length (days)9566
first opposition used1997
last opposition used2024
residual rms (arc-secs)0.82
perturbers coarse indicatorM-v
perturbers precise indicator003Ek
first observation date used1997-11-02.0
last observation date used2024-01-11.0
computer nameMPCLINUX
JD of orbit computation2456760.702566
perihelion JD uncertainty (days)1.7896E-03
argument of perihelion uncertainty (°)1.5588E-04
ascending node uncertainty (°)3.8786E-05
inclination uncertainty (°)6.4718E-06
eccentricity uncertainty 4.4338E-08
perihelion distance uncertainty (AU)2.3497E-07
Minimum Orbit Intersection Distances (in AU)
for orbit epoch: 2460200.5, reference: E2024-AE1
Mercury4.71841
Venus4.31343
Earth4.04891
Mars3.43877
Jupiter0.04287
Saturn4.02271
Uranus13.2583
Neptune24.5849

Observations

179 total observations over interval: 1997 11 02.32378 – 2024 01 11.268315
These data are available for download (format description).

Date (UT) J2000 RA J2000 Dec Magn Location Ref
1997 11 02.32378 02 18 23.55 +14 19 02.4 20.9 V 691 – Steward Observatory, Kitt Peak-Spacewatch MPS 305077
1997 11 02.34685 02 18 22.87 +14 18 57.7 20.9 V 691 – Steward Observatory, Kitt Peak-Spacewatch MPS 305077
1997 11 02.37161 02 18 22.03 +14 18 52.4 20.6 V 691 – Steward Observatory, Kitt Peak-Spacewatch MPS 305077
2001 02 20.348960 09 28 59.456 +03 55 25.69 21.21 V 645 – Apache Point-Sloan Digital Sky Survey MPS 305077
2001 02 20.352432 09 28 59.353 +03 55 26.40 21.98   645 – Apache Point-Sloan Digital Sky Survey MPS 305077
2008 09 05.26441 23 52 29.81 +06 59 43.4 20.8 V 691 – Steward Observatory, Kitt Peak-Spacewatch MPS 305077
2008 09 05.28206 23 52 29.36 +06 59 40.5 21.0 V 691 – Steward Observatory, Kitt Peak-Spacewatch MPS 305077
2008 09 05.29972 23 52 28.90 +06 59 37.5 20.9 V 691 – Steward Observatory, Kitt Peak-Spacewatch MPS 305077
2008 10 30.27540 23 31 04.29 +03 42 50.3 21.4 V G96 – Mt. Lemmon Survey MPS 305077
2008 10 30.28299 23 31 04.15 +03 42 48.5 21.3 V G96 – Mt. Lemmon Survey MPS 305077
2008 10 30.29061 23 31 04.08 +03 42 47.3 21.8 V G96 – Mt. Lemmon Survey MPS 305077
2008 10 30.29832 23 31 03.97 +03 42 46.0 21.9 V G96 – Mt. Lemmon Survey MPS 305077
2009 09 18.40874 02 09 30.05 +15 19 02.2 21.9 V 691 – Steward Observatory, Kitt Peak-Spacewatch MPS 297094
2009 09 18.42642 02 09 29.78 +15 18 59.9 21.5 V 691 – Steward Observatory, Kitt Peak-Spacewatch MPS 297094
2009 09 18.44410 02 09 29.47 +15 18 57.4 21.6 V 691 – Steward Observatory, Kitt Peak-Spacewatch MPS 297094
2009 09 22.43346 02 08 16.94 +15 10 07.7 21.5 V 691 – Steward Observatory, Kitt Peak-Spacewatch MPS 297094
2009 09 22.45113 02 08 16.62 +15 10 04.6 21.5 V 691 – Steward Observatory, Kitt Peak-Spacewatch MPS 297094
2009 09 22.46882 02 08 16.24 +15 10 02.0 22.0 V 691 – Steward Observatory, Kitt Peak-Spacewatch MPS 297094
2009 10 21.37190 01 55 53.58 +13 40 38.2 21.0 V G96 – Mt. Lemmon Survey MPS 300810
2009 10 21.38295 01 55 53.22 +13 40 36.0 20.7 V G96 – Mt. Lemmon Survey MPS 300810
2009 10 21.39230 01 55 52.89 +13 40 34.1 21.5 V G96 – Mt. Lemmon Survey MPS 300810
2009 10 21.40149 01 55 52.64 +13 40 31.8 20.9 V G96 – Mt. Lemmon Survey MPS 300810
2009 10 25.15372 01 54 02.27 +13 26 50.5   691 – Steward Observatory, Kitt Peak-Spacewatch MPS 300810
2009 10 25.17090 01 54 01.78 +13 26 47.0   691 – Steward Observatory, Kitt Peak-Spacewatch MPS 300810
2009 10 25.18808 01 54 01.25 +13 26 43.2   691 – Steward Observatory, Kitt Peak-Spacewatch MPS 300810
2009 11 11.10979 01 46 06.10 +12 25 12.5   691 – Steward Observatory, Kitt Peak-Spacewatch MPS 302328
2009 11 11.12317 01 46 05.98 +12 25 07.9   691 – Steward Observatory, Kitt Peak-Spacewatch MPS 302328
2009 11 11.13657 01 46 05.63 +12 25 04.0   691 – Steward Observatory, Kitt Peak-Spacewatch MPS 302328
2010 10 11.478539 04 36 28.263 +18 23 11.90 22.26 w F51 – Pan-STARRS 1, Haleakala MPS 365777
2010 10 11.492503 04 36 28.115 +18 23 10.13 22.11 w F51 – Pan-STARRS 1, Haleakala MPS 365777
2010 10 11.506910 04 36 27.963 +18 23 08.79 22.08 w F51 – Pan-STARRS 1, Haleakala MPS 365777
2010 10 11.520914 04 36 27.831 +18 23 07.24 22.10 w F51 – Pan-STARRS 1, Haleakala MPS 365777
2010 11 27.34719 04 17 32.49 +16 39 59.0 20.3 V G96 – Mt. Lemmon Survey MPS 359157
2010 11 27.35515 04 17 32.17 +16 39 58.1 20.7 V G96 – Mt. Lemmon Survey MPS 359157
2010 11 27.36317 04 17 31.92 +16 39 56.9 20.1 V G96 – Mt. Lemmon Survey MPS 359157
2010 11 27.37115 04 17 31.63 +16 39 55.7 20.6 V G96 – Mt. Lemmon Survey MPS 359157
2010 12 02.24694 04 14 51.61 +16 28 57.3 20.3 V G96 – Mt. Lemmon Survey MPS 359157
2010 12 02.25486 04 14 51.36 +16 28 55.9 20.2 V G96 – Mt. Lemmon Survey MPS 359157
2010 12 02.26287 04 14 51.07 +16 28 55.3 20.2 V G96 – Mt. Lemmon Survey MPS 359157
2010 12 02.27088 04 14 50.82 +16 28 53.9 20.6 V G96 – Mt. Lemmon Survey MPS 359157
2013 02 03.35824 09 06 37.784 +05 25 20.90 21.0 w F51 – Pan-STARRS 1, Haleakala MPS 456120
2013 02 03.37289 09 06 37.318 +05 25 22.88 21.0 w F51 – Pan-STARRS 1, Haleakala MPS 456120
2013 02 03.38754 09 06 36.852 +05 25 25.04 21.0 w F51 – Pan-STARRS 1, Haleakala MPS 456120
2014 02 28.46059 11 22 32.908 -04 47 13.92 21.0 w F51 – Pan-STARRS 1, Haleakala MPS 505245
2014 02 28.47266 11 22 32.564 -04 47 11.75 21.1 w F51 – Pan-STARRS 1, Haleakala MPS 505245
2014 02 28.48473 11 22 32.221 -04 47 09.43 21.0 w F51 – Pan-STARRS 1, Haleakala MPS 505245
2014 02 28.49684 11 22 31.876 -04 47 07.15 21.3 w F51 – Pan-STARRS 1, Haleakala MPS 505245
2014 03 03.08036 11 21 20.41 -04 38 49.4 20.0 g W84 – Cerro Tololo-DECam MPS 851184
2014 03 03.17210 11 21 17.81 -04 38 31.5 21.2 g W84 – Cerro Tololo-DECam MPS 851184
2014 03 03.27241 11 21 14.92 -04 38 11.4 21.4 g W84 – Cerro Tololo-DECam MPS 851184
2014 03 03.37566 11 21 11.98 -04 37 51.1 22.7 g W84 – Cerro Tololo-DECam MPS 851184
2014 03 04.08143 11 20 52.43 -04 35 30.8 22.5 g W84 – Cerro Tololo-DECam MPS 851184
2014 03 04.17508 11 20 49.74 -04 35 12.0 22.4 g W84 – Cerro Tololo-DECam MPS 851184
2014 03 04.26573 11 20 47.13 -04 34 53.8 21.1 g W84 – Cerro Tololo-DECam MPS 851184
2014 03 04.36966 11 20 44.15 -04 34 32.9 23.2 g W84 – Cerro Tololo-DECam MPS 851184
2014 03 04.39165 11 20 43.52 -04 34 28.4 23.0 g W84 – Cerro Tololo-DECam MPS 851184
2014 03 23.27002 11 11 57.16 -03 25 01.0 21.0 V G96 – Mt. Lemmon Survey MPS 508356
2014 03 23.27512 11 11 57.01 -03 24 59.5 20.7 V G96 – Mt. Lemmon Survey MPS 508356
2014 03 23.28021 11 11 56.90 -03 24 58.4 20.9 V G96 – Mt. Lemmon Survey MPS 508356
2014 03 23.28532 11 11 56.76 -03 24 57.2 20.9 V G96 – Mt. Lemmon Survey MPS 508356
2014 03 24.39798 11 11 27.464 -03 20 37.84 21.1 w F51 – Pan-STARRS 1, Haleakala MPS 508356
2014 03 24.41028 11 11 27.135 -03 20 34.94 21.0 w F51 – Pan-STARRS 1, Haleakala MPS 508356
2014 03 24.42256 11 11 26.808 -03 20 32.01 21.0 w F51 – Pan-STARRS 1, Haleakala MPS 508356
2014 03 24.43486 11 11 26.468 -03 20 29.29 21.0 w F51 – Pan-STARRS 1, Haleakala MPS 508356
2015 04 11.32767 13 25 36.29 -12 15 12.0 21.0 V G96 – Mt. Lemmon Survey MPS 600438
2015 04 11.33202 13 25 36.18 -12 15 11.3 21.6 V G96 – Mt. Lemmon Survey MPS 600438
2015 04 11.33637 13 25 36.06 -12 15 10.3 22.3 V G96 – Mt. Lemmon Survey MPS 600438
2015 04 11.34071 13 25 35.96 -12 15 09.3 21.8 V G96 – Mt. Lemmon Survey MPS 600438
2019 08 21.22058 21 20 07.29 -04 40 54.9 21.7 G G96 – Mt. Lemmon Survey MPS 1023497
2019 08 21.22577 21 20 07.14 -04 40 55.8 21.2 G G96 – Mt. Lemmon Survey MPS 1023497
2019 08 21.23096 21 20 07.00 -04 40 57.4 22.1 G G96 – Mt. Lemmon Survey MPS 1023497
2019 08 21.23616 21 20 06.82 -04 40 57.9 21.8 G G96 – Mt. Lemmon Survey MPS 1023497
2019 08 23.35173 21 19 08.904 -04 46 43.96 21.6 w F51 – Pan-STARRS 1, Haleakala MPS 1030616
2019 08 23.36272 21 19 08.599 -04 46 46.04 21.3 w F51 – Pan-STARRS 1, Haleakala MPS 1030616
2019 08 23.37376 21 19 08.297 -04 46 47.41 21.4 w F51 – Pan-STARRS 1, Haleakala MPS 1030616
2019 08 23.38489 21 19 07.990 -04 46 49.57 21.3 w F51 – Pan-STARRS 1, Haleakala MPS 1030616
2020 08 17.47384 23 30 54.087 +05 33 20.92 21.5 w F51 – Pan-STARRS 1, Haleakala MPS 1237340
2020 08 17.47586 23 30 54.044 +05 33 20.65 21.4 w F51 – Pan-STARRS 1, Haleakala MPS 1237340
2020 08 17.48530 23 30 53.836 +05 33 19.70 21.3 w F51 – Pan-STARRS 1, Haleakala MPS 1237340
2020 08 17.48730 23 30 53.791 +05 33 19.44 21.4 w F51 – Pan-STARRS 1, Haleakala MPS 1237340
2020 08 17.49674 23 30 53.582 +05 33 18.29 21.5 w F51 – Pan-STARRS 1, Haleakala MPS 1237340
2020 08 17.49872 23 30 53.541 +05 33 18.06 21.4 w F51 – Pan-STARRS 1, Haleakala MPS 1237340
2020 08 17.50817 23 30 53.332 +05 33 16.81 21.6 w F51 – Pan-STARRS 1, Haleakala MPS 1237340
2020 08 17.51014 23 30 53.290 +05 33 16.71 21.7 w F51 – Pan-STARRS 1, Haleakala MPS 1237340
2020 09 10.27894 23 20 56.30 +04 27 19.3 21.4 G G96 – Mt. Lemmon Survey MPS 1279242
2020 09 10.28413 23 20 56.14 +04 27 19.2 21.1 G G96 – Mt. Lemmon Survey MPS 1279242
2020 09 10.28931 23 20 55.99 +04 27 17.7 22.3 G G96 – Mt. Lemmon Survey MPS 1279242
2020 09 10.29449 23 20 55.81 +04 27 16.2 21.1 G G96 – Mt. Lemmon Survey MPS 1279242
2020 09 15.40582 23 18 35.996 +04 09 18.21 21.2 w F51 – Pan-STARRS 1, Haleakala MPS 1279242
2020 09 15.41934 23 18 35.612 +04 09 15.25 21.3 w F51 – Pan-STARRS 1, Haleakala MPS 1279242
